www.pogodaiklimat.ru

Погода и климат >> Архив погоды >> Бразилия >> Баия >> Итапетинга


ПОГОДА в Итапетинге

  • Прогноз погоды в Итапетинге
  • Монитор погоды в Итапетинге

АРХИВ ПОГОДЫ в Итапетинге

Время (UTC), дата Ветер
(напр.,м/с)
 
Видим.   Явления Облачность Т
(С)
Тd
(С)
f
(%)
Тe
(С)
Тes
(С)
Комфортность P
(гПа)
Po
(гПа)
Тmin
(С)
Tmax
(С)
R
(мм)
R24
(мм)
S
(см)
16 17.03 С 1
{4}
н/о н/о +34.9 +10.9 23 +34 +34 очень
жарко
1009.6 979.6
17 17.03 ЮВ 1
{3}
н/о н/о +35.8 +12.7 25 +36 +36 очень
жарко
1008.5 978.7
18 17.03 СВ 1
{4}
н/о н/о +37.0 +12.3 23 +37 +37 очень
жарко
1007.6 977.9
19 17.03 В 2
{3}
н/о н/о +36.1 +12.5 24 +36 +36 очень
жарко
1007.2 977.4
20 17.03 СВ 2
{4}
н/о н/о +35.8 +12.0 24 +36 +36 очень
жарко
1007.0 977.2
21 17.03 СВ 1
{3}
н/о н/о +33.8 +12.6 28 +34 +34 очень
жарко
1007.7 977.7
22 17.03 В 3
{5}
н/о н/о +30.5 +17.8 47 +35 +35 очень
душно
1009.1 978.7
23 17.03 В 3
{5}
н/о н/о +28.6 +17.9 52 +33 +33 очень
душно
1009.8 979.2
00 18.03 СВ 3
{5}
н/о н/о +27.1 +17.9 57 +32 +32 очень
душно
1011.3 980.5
01 18.03 СВ 1
{4}
н/о н/о +26.4 +17.8 59 +31 +31 душно 1012.1 981.2
02 18.03 В 2
{3}
н/о н/о +25.7 +17.8 62 +30 +30 душно 1012.0 981.1
03 18.03 В 2
{3}
н/о н/о +24.7 +18.3 68 +29 +29 душно 1011.8 980.8
04 18.03 В 2
{3}
н/о н/о +24.2 +18.5 70 +29 +29 душно 1011.9 980.8
05 18.03 В 1
{2}
н/о н/о +23.8 +18.9 74 +29 +29 душно 1011.7 980.6
06 18.03 СВ 2
{2}
н/о н/о +23.4 +18.9 76 +30 +30 очень
душно
1011.7 980.5
07 18.03 В 1
{3}
н/о н/о +22.7 +18.8 79 +29 +29 очень
душно
1011.9 980.7
08 18.03 В 1
{1}
н/о н/о +22.4 +18.8 80 +28 +28 душно 1012.5 981.2
09 18.03 штиль 0
{1}
н/о н/о +21.9 +18.9 83 +27 +27 душно 1012.9 981.5
10 18.03 В 1
{2}
н/о н/о +25.3 +19.4 70 +31 +31 очень
душно
1013.3 982.3
11 18.03 З 1
{2}
н/о н/о +26.9 +19.2 63 +32 +32 очень
душно
1013.7 982.8
12 18.03 В 1
{2}
н/о н/о +29.0 +18.5 53 +34 +34 очень
душно
1013.5 982.8
13 18.03 В 1
{2}
н/о н/о +31.5 +16.6 41 +35 +35 очень
душно
1012.7 982.3
14 18.03 В 1
{3}
н/о н/о +34.3 +16.1 34 +37 +37 очень
душно
1011.7 981.6
16 18.03 В 2
{3}
н/о н/о +36.3 +14.8 28 +38 +38 очень
душно
1008.2 978.4
17 18.03 СВ 2
{4}
н/о н/о +36.9 +15.0 27 +38 +38 очень
душно
1006.7 977.0
18 18.03 Ю 1
{4}
н/о н/о +36.6 +14.2 26 +37 +37 очень
жарко
1006.1 976.4
19 18.03 В 1
{3}
н/о н/о +37.6 +14.8 26 +39 +39 очень
душно
1005.4 975.8
21 18.03 В 2
{3}
н/о н/о +34.6 +14.7 30 +36 +36 душно 1005.5 975.6
22 18.03 СВ 3
{5}
н/о н/о +32.1 +17.9 43 +36 +36 очень
душно
1006.1 976.0
23 18.03 В 3
{5}
н/о н/о +29.2 +19.3 55 +35 +35 очень
душно
1007.3 976.9
00 19.03 СВ 3
{5}
н/о н/о +28.1 +19.6 60 +34 +34 очень
душно
1008.5 977.9
01 19.03 СВ 2
{5}
н/о н/о +27.4 +19.9 64 +34 +34 очень
душно
1009.5 978.8
02 19.03 В 2
{4}
н/о н/о +26.1 +20.8 73 +33 +33 очень
душно
1010.1 979.3
03 19.03 В 2
{3}
н/о н/о +25.6 +21.0 76 +32 +32 очень
душно
1010.1 979.2
04 19.03 В 2
{3}
н/о н/о +25.4 +20.9 76 +32 +32 очень
душно
1009.9 979.0
05 19.03 СВ 2
{3}
н/о н/о +25.7 +20.7 74 +32 +32 очень
душно
1009.5 978.6
06 19.03 СВ 1
{2}
н/о н/о +25.4 +20.8 76 +32 +32 очень
душно
1009.4 978.5
07 19.03 СВ 1
{2}
н/о н/о +25.4 +20.9 76 +32 +32 очень
душно
1009.4 978.5
08 19.03 СВ 1
{2}
н/о н/о +25.3 +20.8 76 +32 +32 очень
душно
1009.6 978.7
09 19.03 СВ 1
{2}
н/о н/о +25.0 +21.1 79 +32 +32 очень
душно
1010.1 979.1
10 19.03 В 1
{2}
н/о н/о +25.4 +21.2 78 +32 +32 очень
душно
1010.7 979.8
11 19.03 СВ 1
{2}
н/о н/о +27.1 +20.6 68 +34 +34 очень
душно
1010.9 980.1
12 19.03 С 1
{3}
н/о н/о +30.2 +20.0 54 +36 +36 очень
душно
1010.4 980.0
13 19.03 Ю 1
{2}
н/о н/о +33.2 +19.8 45 +39 +39 очень
душно
1009.3 979.2
14 19.03 Ю 1
{3}
н/о н/о +36.2 +18.9 36 +41 +41 опасность
перегрева
1007.9 978.1
15 19.03 СВ 2
{3}
н/о н/о +38.1 +17.8 31 +42 +42 опасность
перегрева
1006.3 976.7
16 19.03 Ю 1
{4}
н/о н/о +37.3 +16.6 30 +40 +40 очень
душно
1004.9 975.3
17 19.03 СВ 2
{4}
н/о н/о +38.5 +17.1 29 +41 +41 опасность
перегрева
1003.7 974.3
18 19.03 С 2
{4}
н/о н/о +38.9 +16.7 27 +41 +41 опасность
перегрева
1003.0 973.6
06 20.03 С 1
{2}
н/о н/о +26.1 +22.0 78 +34 +34 очень
душно
1007.5 976.7
07 20.03 СВ 1
{2}
н/о н/о +25.0 +22.6 87 +33 +33 очень
душно
1007.7 976.8 0.2
08 20.03 штиль 0
{2}
н/о н/о +25.1 +22.6 86 +33 +33 очень
душно
1007.9 977.0 0.4
09 20.03 СЗ 1
{2}
н/о н/о +24.3 +22.6 90 +32 +32 очень
душно
1009.1 978.1 3
11 20.03 В 1
{2}
н/о н/о +25.4 +23.2 88 +34 +34 очень
душно
1010.8 979.9
12 20.03 В 1
{1}
н/о н/о +25.6 +23.4 88 +35 +35 очень
душно
1011.1 980.2 0.2
13 20.03 В 2
{4}
н/о н/о +22.9 +21.2 90 +30 +30 очень
душно
1012.2 981.0 5
14 20.03 В 2
{4}
н/о н/о +22.0 +20.4 91 +28 +28 душно 1011.5 980.2 8
16 20.03 СЗ 1
{2}
н/о н/о +23.3 +21.4 89 +31 +31 очень
душно
1008.4 977.3
17 20.03 СЗ 1
{2}
н/о н/о +24.3 +21.6 85 +31 +31 очень
душно
1006.7 975.8 0.2
18 20.03 ЮЗ 1
{1}
н/о н/о +25.9 +22.6 82 +34 +34 очень
душно
1005.7 975.0
19 20.03 В 1
{2}
н/о н/о +26.8 +22.7 78 +35 +35 очень
душно
1005.2 974.6
20 20.03 В 2
{2}
н/о н/о +26.7 +22.1 76 +35 +35 очень
душно
1005.3 974.7
21 20.03 ЮВ 1
{2}
н/о н/о +25.7 +22.2 81 +33 +33 очень
душно
1006.2 975.4
22 20.03 ЮВ 1
{2}
н/о н/о +25.1 +22.1 83 +32 +32 очень
душно
1006.5 975.7
23 20.03 штиль 0
{1}
н/о н/о +24.7 +22.3 87 +32 +32 очень
душно
1007.4 976.5
00 21.03 С 1
{1}
н/о н/о +24.5 +22.3 88 +32 +32 очень
душно
1008.8 977.8
01 21.03 СЗ 1
{1}
н/о н/о +24.6 +22.6 89 +32 +32 очень
душно
1009.4 978.4
02 21.03 СЗ 1
{1}
н/о н/о +24.6 +22.6 89 +32 +32 очень
душно
1009.2 978.2
03 21.03 З 1
{1}
н/о н/о +24.7 +22.7 89 +33 +33 очень
душно
1008.9 978.0
05 21.03 ЮВ 1
{1}
н/о н/о +24.4 +22.7 90 +32 +32 очень
душно
1007.2 976.3
06 21.03 СВ 1
{2}
н/о н/о +24.2 +22.4 90 +32 +32 очень
душно
1007.2 976.3
07 21.03 ЮВ 1
{2}
н/о н/о +23.7 +21.5 87 +30 +30 очень
душно
1007.1 976.1
08 21.03 С 1
{1}
н/о н/о +23.6 +21.8 90 +30 +30 очень
душно
1007.8 976.8
09 21.03 С 1
{1}
н/о н/о +24.0 +22.3 90 +31 +31 очень
душно
1008.2 977.2
10 21.03 С 1
{1}
н/о н/о +24.5 +22.8 90 +32 +32 очень
душно
1008.8 977.8
11 21.03 С 1
{2}
н/о н/о +24.9 +22.8 88 +33 +33 очень
душно
1010.1 979.1
12 21.03 З 1
{4}
н/о н/о +25.0 +22.2 84 +32 +32 очень
душно
1011.1 980.1
13 21.03 С 1
{4}
н/о н/о +23.7 +22.3 92 +31 +31 очень
душно
1011.4 980.3 8
14 21.03 С 1
{2}
н/о н/о +24.4 +22.9 91 +32 +32 очень
душно
1011.4 980.3 4
16 21.03 СЗ 2
{3}
н/о н/о +26.1 +22.8 82 +35 +35 очень
душно
1010.1 979.3
18 21.03 З 2
{4}
н/о н/о +24.1 +20.2 79 +30 +30 очень
душно
1008.9 977.9
20 21.03 ЮВ 1
{2}
н/о н/о +23.5 +21.5 89 +30 +30 очень
душно
1008.4 977.3 0.2
00 22.03 СВ 1
{1}
н/о н/о +23.6 +21.9 90 +30 +30 очень
душно
1010.2 979.1
01 22.03 ЮВ 1
{2}
н/о н/о +23.3 +21.7 91 +32 +32 очень
душно
1010.5 979.4
02 22.03 ЮВ 1
{1}
н/о н/о +23.1 +21.7 92 +31 +31 очень
душно
1011.2 980.0
03 22.03 ЮВ 1
{1}
н/о н/о +22.9 +21.6 92 +31 +31 очень
душно
1011.1 979.9
04 22.03 СЗ 1
{1}
н/о н/о +23.0 +21.6 92 +31 +31 очень
душно
1010.7 979.5
05 22.03 штиль 0
{1}
н/о н/о +22.9 +21.6 92 +31 +31 очень
душно
1010.1 978.9
06 22.03 СЗ 1
{1}
н/о н/о +23.1 +21.8 92 +31 +31 очень
душно
1009.8 978.7
07 22.03 СЗ 1
{2}
н/о н/о +23.0 +21.7 92 +31 +31 очень
душно
1010.2 979.0
08 22.03 СЗ 1
{1}
н/о н/о +23.1 +21.8 92 +31 +31 очень
душно
1010.6 979.4
09 22.03 СЗ 1
{1}
н/о н/о +23.2 +21.9 92 +31 +31 очень
душно
1011.1 979.9
10 22.03 СЗ 1
{1}
н/о н/о +23.7 +22.2 91 +31 +31 очень
душно
1011.8 980.7
11 22.03 СЗ 1
{1}
н/о н/о +25.0 +22.6 87 +33 +33 очень
душно
1012.5 981.5
12 22.03 ЮЗ 1
{1}
н/о н/о +25.6 +21.4 78 +33 +33 очень
душно
1013.1 982.1
13 22.03 ЮВ 1
{2}
н/о н/о +27.8 +21.6 69 +36 +36 очень
душно
1013.0 982.2
14 22.03 В 1
{2}
н/о н/о +28.9 +21.5 64 +37 +37 очень
душно
1012.4 981.8
15 22.03 ЮВ 1
{2}
н/о н/о +30.3 +20.6 56 +37 +37 очень
душно
1010.9 980.5
16 22.03 ЮВ 2
{3}
н/о н/о +30.7 +21.9 59 +39 +39 очень
душно
1009.7 979.3
17 22.03 ЮВ 2
{4}
н/о н/о +31.6 +20.9 53 +39 +39 очень
душно
1008.6 978.4
18 22.03 ЮВ 2
{6}
н/о н/о +25.2 +22.4 84 +33 +33 очень
душно
1009.8 978.9 2
19 22.03 Ю 1
{4}
н/о н/о +24.1 +22.1 89 +31 +31 очень
душно
1010.8 979.7 2
01 23.03 СЗ 1
{1}
н/о н/о +23.7 +22.4 92 +31 +31 очень
душно
1014.1 982.9 0.2
02 23.03 СЗ 1
{1}
н/о н/о +23.6 +22.3 92 +31 +31 очень
душно
1013.6 982.4
03 23.03 ЮВ 1
{3}
н/о н/о +23.3 +21.8 91 +32 +32 очень
душно
1013.2 982.0 0.2
04 23.03 ЮВ 2
{4}
н/о н/о +23.3 +21.5 90 +31 +31 очень
душно
1012.7 981.5 0.6
05 23.03 ЮВ 2
{3}
н/о н/о +22.8 +20.6 87 +30 +30 очень
душно
1012.7 981.4
06 23.03 Ю 1
{3}
н/о н/о +22.5 +20.6 89 +29 +29 очень
душно
1012.7 981.4
07 23.03 В 1
{1}
н/о н/о +22.4 +20.6 90 +29 +29 очень
душно
1012.6 981.3 0.6
08 23.03 СЗ 1
{1}
н/о н/о +22.3 +20.8 91 +29 +29 очень
душно
1012.7 981.4 0.6
09 23.03 С 1
{1}
н/о н/о +22.3 +21.0 92 +29 +29 очень
душно
1013.1 981.8
10 23.03 З 1
{1}
н/о н/о +22.7 +21.3 92 +30 +30 очень
душно
1013.8 982.5
11 23.03 СЗ 1
{2}
н/о н/о +23.1 +21.5 91 +31 +31 очень
душно
1014.8 983.5
12 23.03 З 1
{2}
н/о н/о +24.4 +21.8 85 +31 +31 очень
душно
1015.2 984.0
14 23.03 Ю 1
{2}
н/о н/о +26.7 +19.5 65 +32 +32 очень
душно
1014.1 983.2
15 23.03 З 1
{2}
н/о н/о +28.4 +19.6 59 +34 +34 очень
душно
1012.8 982.1
16 23.03 ЮЗ 1
{2}
н/о н/о +28.5 +20.0 60 +35 +35 очень
душно
1011.5 980.9
17 23.03 ЮЗ 2
{3}
н/о н/о +29.6 +19.5 55 +36 +36 очень
душно
1010.4 979.9
18 23.03 Ю 1
{3}
н/о н/о +29.0 +19.9 58 +35 +35 очень
душно
1010.0 979.5
19 23.03 Ю 2
{3}
н/о н/о +28.3 +20.0 61 +35 +35 очень
душно
1010.3 979.7
20 23.03 Ю 2
{4}
н/о н/о +27.7 +20.0 63 +34 +34 очень
душно
1010.7 980.0
21 23.03 Ю 1
{3}
н/о н/о +26.1 +20.2 70 +32 +32 очень
душно
1011.3 980.4
22 23.03 Ю 1
{3}
н/о н/о +25.3 +20.6 75 +31 +31 очень
душно
1012.4 981.4
23 23.03 Ю 1
{3}
н/о н/о +25.0 +20.8 78 +31 +31 очень
душно
1013.1 982.1
00 24.03 ЮВ 1
{3}
н/о н/о +24.7 +20.8 79 +31 +31 очень
душно
1013.9 982.8
03 24.03 Ю 1
{1}
н/о н/о +24.1 +20.9 82 +30 +30 очень
душно
1014.0 982.8
04 24.03 ЮВ 1
{2}
н/о н/о +23.5 +21.2 87 +30 +30 очень
душно
1013.5 982.3
05 24.03 Ю 1
{1}
н/о н/о +23.4 +21.3 88 +31 +31 очень
душно
1012.7 981.5
06 24.03 штиль 0
{1}
н/о н/о +22.9 +21.2 90 +30 +30 очень
душно
1012.1 980.9
07 24.03 СЗ 1
{1}
н/о н/о +23.0 +21.4 91 +31 +31 очень
душно
1011.9 980.7
08 24.03 штиль 0
{1}
н/о н/о +23.0 +21.4 91 +31 +31 очень
душно
1012.5 981.3
09 24.03 З 1
{1}
н/о н/о +23.1 +21.4 90 +31 +31 очень
душно
1012.9 981.7
10 24.03 СЗ 1
{1}
н/о н/о +23.2 +21.3 89 +31 +31 очень
душно
1013.6 982.4
11 24.03 СЗ 1
{1}
н/о н/о +24.5 +21.7 84 +31 +31 очень
душно
1014.3 983.2
13 24.03 Ю 1
{3}
н/о н/о +26.1 +18.8 64 +31 +31 очень
душно
1014.7 983.7
14 24.03 ЮЗ 2
{3}
н/о н/о +26.9 +20.1 66 +33 +33 очень
душно
1014.3 983.4
16 24.03 Ю 2
{3}
н/о н/о +26.5 +20.7 70 +33 +33 очень
душно
1013.0 982.1
17 24.03 ЮВ 1
{3}
н/о н/о +24.0 +22.1 89 +31 +31 очень
душно
1012.7 981.6 2

 

Местоположение метеостанции Итапетинга (Баия, Бразилия): широта -15.25 долгота -40.23 высота над уровнем моря 271 м.

В архиве по умолчанию представлена погода в Итапетинге за последнюю неделю. Архивные данные за месяц целиком и за предыдущие месяцы, начиная с января 2011 года, Вы можете получить, выбрав интересующий диапазон дат из раскрывающегося списка и нажав кнопку "Ввод!".


*Определитесь, кто Вы:
робот инопланетянин человек

Внимание! Время в таблицах - всемирное. Для получения местного времени необходимо прибавить поправку, которая равна -3 ч.

Смотрите также архив погоды в соседних городах и на ближайших метеорологических станциях:

Погода в Витория-да-Конкисте (Баия, Бразилия) (74 км)
Погода в Витория-да-Конкисте (Баия, Бразилия) (77 км)
Погода в Альменаре (Минас-Жерайс, Бразилия) (113 км)
Погода в Уне (Баия, Бразилия) (123 км)
Погода в Ильеусе (Баия, Бразилия) (132 км)
Погода в Ипиау (Баия, Бразилия) (133 км)
Погода в Ильеусе (Баия, Бразилия) (138 км)
Погода в Педра-Азуле (Минас-Жерайс, Бразилия) (140 км)
Погода в Агуас-Вермельясе (Минас-Жерайс, Бразилия) (142 км)
Погода в Бельмонте (Баия, Бразилия) (142 км)

Пояснения к столбцам:

Ветер - указаны скорость ветра в м/с - средняя за 10 мин, порывы в срок и между сроками (в фигурных скобках) и направление, откуда дует ветер: С - северный, СВ - северо-восточный, В - восточный, ЮВ - юго-восточный, Ю - южный, ЮЗ - юго-западный, З - западный, СЗ - северо-западный.
Видимость - горизонтальная дальность видимости в метрах или километрах. При видимости от 1 до 10 км при отсутствии осадков обычно наблюдается дымка, при ухудшении видимости до 1 км и менее - туман. В сухую погоду видимость может ухудшаться дымом, пылью или мглою.
Явления - указаны атмосферные явления, наблюдавшиеся в срок или в последний час перед сроком; фигурными скобками обозначены явления, наблюдавшиеся между сроками (за 1-3 часа до срока); квадратными скобками обозначены град или гололедные отложения с указанием их диаметра в мм.
Облачность - указаны через наклонную черту общая и нижняя облачность в баллах и высота нижней границы облаков в метрах; квадратными скобками обозначены формы облаков: Ci - перистые, Cs - перисто-слоистые, Cc - перисто-кучевые, Ac - высококучевые, As - высокослоистые, Sc - слоисто-кучевые, Ns - слоисто-дождевые, Cu - кучевые, Cb - кучево-дождевые. Подробнее классификацию облаков см. в Атласе облаков (PDF).
T - Температура воздуха - температура, измеренная на высоте 2 м над землей.
Td - Температура точки росы - температура, при понижении до которой содержащийся в воздухе водяной пар достигнет насыщения.
f - Относительная влажность воздуха - влажноcть воздуха, измеренная на высоте 2 м над землей.
Te - Эффективная температура - температура, которую ощущает одетый по сезону человек в тени. Характеристика душности погоды. При расчете учитывается влияние влажности воздуха и скорости ветра на теплоощущения человека.
Tes - Эффективная температура на солнце - температура, которую ощущает человек, с поправкой на солнечный нагрев. Характеристика знойности погоды. Зависит от высоты солнца над горизонтом, облачности и скорости ветра. Ночью, в пасмурную погоду, а также при ветре 12 м/с и более поправка равна нулю.
P - Атмосферное давление - приведенное к уровню моря атмосферное давление.
Po - Атмосферное давление - измеренное на уровне метеостанции атмосферное давление.
Tmin - Минимальная температура - минимум температуры воздуха на высоте 2 м над землей.
Tmax - Максимальная температура - максимум температуры воздуха на высоте 2 м над землей.
R - Количество осадков - Количество выпавших осадков за период времени, мм. При наведении курсора мыши на число - период времени, за который выпало указанное количество осадков.
R24 - Количество осадков - Количество выпавших осадков за 24 часа, мм.
S - Снежный покров - Высота снежного покрова, см. При наведении курсора мыши на число - состояние снежного покрова и степень покрытия местности в баллах.